Hourly Data Report for October 01, 2017

All times are specified in Local Standard Time (LST). Add 1 hour to adjust for Daylight Saving Time where and when it is observed.

EUREKA CLIMATE
NUNAVUT

79°59'21.000" N
85°56'02.000" W
10.00 m
2401199
71613
NEK

Download Data

Hourly Data (October 2017)
Hourly Data Report for October 1, 2017
Temp Definition
°C
Dew Point Temp Definition
°C
Rel Hum Definition
%
Wind Dir Definition
10's deg

Wind Spd Definition
km/h
Visibility Definition
km
Stn Press Definition
kPa
Hmdx Definition


Wind Chill Definition


Weather Definition


TIME
00:00 -16.2 -17.4 91 36 2   101.34   -18 LegendNANA
01:00 -16.7 -17.9 90 36 2   101.31   -18 LegendNANA
02:00 -17.5 -18.8 90 1 3   101.26   -20 LegendNANA
03:00 -17.8 -19.1 89 2 9   101.27   -24 LegendNANA
04:00 -19.8 -21.4 87 3 8   101.24   -26 LegendNANA
05:00 -20.0 -21.7 87 2 8   101.19   -26 LegendNANA
06:00 -20.2 -21.8 87 2 7   101.13   -26 LegendNANA
07:00 -19.7 -21.3 87 2 5   101.10   -24 LegendNANA
08:00 -21.7 -23.5 85 2 5   101.06   -26 LegendNANA
09:00 -21.5 -23.3 86 2 5   101.02   -26 LegendNANA
10:00 -20.9 -22.6 86 4 4   101.00   -24 LegendNANA
11:00 -20.1 -21.7 87 3 4   100.95   -24 LegendNANA
12:00 -19.7 -21.0 90 15 1   100.93   -21 LegendNANA
13:00 -19.1 -20.3 90 10 1   100.94   -20 LegendNANA
14:00 -18.0 -19.3 90 12 5   100.92   -22 LegendNANA
15:00 -17.9 -19.1 90 11 4   100.92   -21 LegendNANA
16:00 -17.4 -18.7 89 11 5   100.90   -21 LegendNANA
17:00 -16.7 -17.9 90 11 5   100.90   -21 LegendNANA
18:00 -16.3 -17.5 90 12 6   100.89   -21 LegendNANA
19:00 -16.0 -17.2 90 11 6   100.90   -20 LegendNANA
20:00 -15.6 -16.8 91 12 7   100.89   -21 LegendNANA
21:00 -15.5 -16.6 91 13 4   100.89   -18 LegendNANA
22:00 -15.3 -16.5 91 13 5   100.89   -19 LegendNANA
23:00 -15.5 -16.6 91 2 1   100.87   -16 LegendNANA

Notes on Data Quality.

Legend

  • E = Estimated
  • M = Missing
  • NA = Not Available
  • ‡ = Partner data that is not subject to review by the National Climate Archives
Date modified: